| time (UTC) | temp F | wind direction | speed MPH | gust MPH | rain 1hr in | rain 24hr in | rain mn in | humidity % | barometer mb |
| 20260503233347 | 62 | 233 | 2.0 | 12.0 | 0.00 | 0.00 | 0.00 | 38 | 1010.5 |
| 20260503232936 | 62 | 213 | 3.0 | 12.0 | 0.00 | 0.00 | 0.00 | 37 | 1010.6 |
| 20260503232541 | 62 | 0 | 3.0 | 12.0 | 0.00 | 0.00 | 0.00 | 36 | 1010.5 |
| 20260503232132 | 62 | 0 | 3.0 | 12.0 | 0.00 | 0.00 | 0.00 | 36 | 1010.5 |
| 20260503231717 | 63 | 0 | 3.0 | 10.0 | 0.00 | 0.00 | 0.00 | 37 | 1010.5 |
| 20260503231302 | 63 | 0 | 2.0 | 10.0 | 0.00 | 0.00 | 0.00 | 36 | 1010.6 |
| 20260503230335 | 63 | 0 | 2.0 | 10.0 | 0.00 | 0.00 | 0.00 | 41 | 1010.6 |
| 20260503225924 | 62 | 0 | 3.0 | 10.0 | 0.00 | 0.00 | 0.00 | 42 | 1010.8 |
| 20260503225511 | 62 | 0 | 3.0 | 14.0 | 0.00 | 0.00 | 0.00 | 41 | 1010.8 |
| 20260503225055 | 63 | 0 | 3.0 | 14.0 | 0.00 | 0.00 | 0.00 | 41 | 1010.6 |
| 20260503224651 | 63 | 0 | 4.0 | 14.0 | 0.00 | 0.00 | 0.00 | 42 | 1010.7 |
| 20260503224256 | 62 | 0 | 4.0 | 14.0 | 0.00 | 0.00 | 0.00 | 44 | 1010.7 |
| 20260503223842 | 62 | 0 | 4.0 | 14.0 | 0.00 | 0.00 | 0.00 | 43 | 1010.7 |
| 20260503223441 | 62 | 0 | 4.0 | 11.0 | 0.00 | 0.00 | 0.00 | 42 | 1010.9 |
| 20260503223030 | 62 | 0 | 4.0 | 11.0 | 0.00 | 0.00 | 0.00 | 42 | 1010.9 |
| 20260503222627 | 62 | 0 | 3.0 | 8.0 | 0.00 | 0.00 | 0.00 | 41 | 1010.9 |
| 20260503222222 | 62 | 0 | 3.0 | 14.0 | 0.00 | 0.00 | 0.00 | 42 | 1010.9 |
| 20260503221829 | 63 | 0 | 3.0 | 14.0 | 0.00 | 0.00 | 0.00 | 40 | 1010.7 |
| 20260503221426 | 63 | 0 | 4.0 | 14.0 | 0.00 | 0.00 | 0.00 | 40 | 1010.7 |
| 20260503221032 | 62 | 0 | 4.0 | 14.0 | 0.00 | 0.00 | 0.00 | 41 | 1010.9 |
| 20260503220631 | 63 | 0 | 4.0 | 14.0 | 0.00 | 0.00 | 0.00 | 40 | 1010.9 |
| 20260503220232 | 63 | 0 | 3.0 | 11.0 | 0.00 | 0.00 | 0.00 | 42 | 1011.0 |
| 20260503215304 | 62 | 0 | 4.0 | 16.0 | 0.00 | 0.00 | 0.00 | 42 | 1011.0 |
| 20260503214908 | 62 | 0 | 4.0 | 16.0 | 0.00 | 0.00 | 0.00 | 45 | 1011.0 |
| 20260503214504 | 61 | 230 | 5.0 | 16.0 | 0.00 | 0.00 | 0.00 | 43 | 1011.1 |
| 20260503214055 | 61 | 0 | 4.0 | 16.0 | 0.00 | 0.00 | 0.00 | 44 | 1011.0 |
| 20260503213647 | 61 | 206 | 4.0 | 15.0 | 0.00 | 0.00 | 0.00 | 43 | 1011.0 |
| 20260503213247 | 61 | 0 | 5.0 | 15.0 | 0.00 | 0.00 | 0.00 | 46 | 1011.0 |
| 20260503212852 | 61 | 0 | 4.0 | 15.0 | 0.00 | 0.00 | 0.00 | 44 | 1010.9 |
| 20260503212447 | 61 | 0 | 4.0 | 13.0 | 0.00 | 0.00 | 0.00 | 43 | 1010.9 |
| 20260503212036 | 62 | 0 | 3.0 | 13.0 | 0.00 | 0.00 | 0.00 | 43 | 1010.9 |
| 20260503211627 | 62 | 0 | 4.0 | 13.0 | 0.00 | 0.00 | 0.00 | 41 | 1010.9 |
| 20260503211222 | 62 | 0 | 4.0 | 13.0 | 0.00 | 0.00 | 0.00 | 41 | 1010.9 |
| 20260503210816 | 62 | 0 | 4.0 | 11.0 | 0.00 | 0.00 | 0.00 | 41 | 1010.8 |
| 20260503210405 | 63 | 0 | 5.0 | 11.0 | 0.00 | 0.00 | 0.00 | 42 | 1010.8 |
| 20260503205954 | 63 | 0 | 5.0 | 11.0 | 0.00 | 0.00 | 0.00 | 39 | 1010.8 |
| 20260503205557 | 63 | 0 | 4.0 | 11.0 | 0.00 | 0.00 | 0.00 | 42 | 1011.0 |
| 20260503205200 | 63 | 0 | 3.0 | 9.0 | 0.00 | 0.00 | 0.00 | 42 | 1011.0 |
| 20260503204746 | 63 | 0 | 4.0 | 13.0 | 0.00 | 0.00 | 0.00 | 43 | 1011.0 |
| 20260503204353 | 63 | 0 | 4.0 | 13.0 | 0.00 | 0.00 | 0.00 | 42 | 1010.9 |
| 20260503203939 | 63 | 0 | 5.0 | 13.0 | 0.00 | 0.00 | 0.00 | 42 | 1011.1 |
| 20260503203538 | 62 | 0 | 5.0 | 13.0 | 0.00 | 0.00 | 0.00 | 41 | 1011.0 |
| 20260503203129 | 63 | 0 | 4.0 | 13.0 | 0.00 | 0.00 | 0.00 | 39 | 1011.1 |
| 20260503202205 | 63 | 0 | 4.0 | 19.0 | 0.00 | 0.00 | 0.00 | 40 | 1011.2 |
| 20260503201751 | 63 | 0 | 4.0 | 19.0 | 0.00 | 0.00 | 0.00 | 41 | 1011.2 |
| 20260503201358 | 62 | 0 | 5.0 | 19.0 | 0.00 | 0.00 | 0.00 | 40 | 1011.2 |
| 20260503200946 | 63 | 0 | 4.0 | 19.0 | 0.00 | 0.00 | 0.00 | 42 | 1011.4 |
| 20260503200551 | 62 | 0 | 5.0 | 19.0 | 0.00 | 0.00 | 0.00 | 40 | 1011.4 |
| 20260503200153 | 62 | 0 | 4.0 | 13.0 | 0.00 | 0.00 | 0.00 | 42 | 1011.5 |
| 20260503195226 | 62 | 0 | 4.0 | 17.0 | 0.00 | 0.00 | 0.00 | 39 | 1011.6 |
| 20260503194825 | 63 | 0 | 4.0 | 17.0 | 0.00 | 0.00 | 0.00 | 35 | 1011.7 |
| 20260503194420 | 64 | 0 | 4.0 | 17.0 | 0.00 | 0.00 | 0.00 | 36 | 1011.6 |
| 20260503194026 | 64 | 0 | 5.0 | 17.0 | 0.00 | 0.00 | 0.00 | 35 | 1011.7 |
| 20260503193048 | 64 | 0 | 5.0 | 15.0 | 0.00 | 0.00 | 0.00 | 35 | 1011.9 |
| 20260503192129 | 63 | 0 | 4.0 | 12.0 | 0.00 | 0.00 | 0.00 | 36 | 1012.1 |
| 20260503191725 | 64 | 0 | 5.0 | 12.0 | 0.00 | 0.00 | 0.00 | 33 | 1012.1 |
| 20260503190801 | 63 | 0 | 6.0 | 15.0 | 0.00 | 0.00 | 0.00 | 33 | 1012.2 |
| 20260503190404 | 63 | 0 | 6.0 | 15.0 | 0.00 | 0.00 | 0.00 | 36 | 1012.3 |
| 20260503185436 | 63 | 0 | 5.0 | 15.0 | 0.00 | 0.00 | 0.00 | 38 | 1012.4 |
| 20260503185043 | 63 | 0 | 5.0 | 15.0 | 0.00 | 0.00 | 0.00 | 39 | 1012.5 |
| 20260503184650 | 63 | 0 | 5.0 | 15.0 | 0.00 | 0.00 | 0.00 | 39 | 1012.5 |
| 20260503184240 | 63 | 0 | 5.0 | 12.0 | 0.00 | 0.00 | 0.00 | 36 | 1012.5 |
| 20260503183838 | 63 | 0 | 5.0 | 17.0 | 0.00 | 0.00 | 0.00 | 37 | 1012.5 |
| 20260503183443 | 62 | 0 | 5.0 | 17.0 | 0.00 | 0.00 | 0.00 | 38 | 1012.5 |
| 20260503183039 | 62 | 0 | 6.0 | 17.0 | 0.00 | 0.00 | 0.00 | 41 | 1012.6 |
| 20260503182635 | 62 | 0 | 6.0 | 17.0 | 0.00 | 0.00 | 0.00 | 38 | 1012.7 |
| 20260503182228 | 63 | 0 | 5.0 | 17.0 | 0.00 | 0.00 | 0.00 | 35 | 1012.8 |
| 20260503181825 | 63 | 0 | 5.0 | 14.0 | 0.00 | 0.00 | 0.00 | 40 | 1012.8 |
| 20260503181419 | 62 | 0 | 6.0 | 14.0 | 0.00 | 0.00 | 0.00 | 39 | 1012.8 |
| 20260503181004 | 62 | 0 | 6.0 | 14.0 | 0.00 | 0.00 | 0.00 | 36 | 1012.9 |
| 20260503180608 | 62 | 0 | 6.0 | 15.0 | 0.00 | 0.00 | 0.00 | 41 | 1012.8 |
| 20260503175656 | 62 | 0 | 5.0 | 15.0 | 0.00 | 0.00 | 0.00 | 38 | 1013.0 |
| 20260503175253 | 62 | 0 | 5.0 | 16.0 | 0.00 | 0.00 | 0.00 | 36 | 1013.0 |
| 20260503174848 | 62 | 0 | 5.0 | 16.0 | 0.00 | 0.00 | 0.00 | 40 | 1013.0 |
| 20260503174449 | 62 | 0 | 5.0 | 16.0 | 0.00 | 0.00 | 0.00 | 40 | 1013.1 |
| 20260503174053 | 62 | 0 | 6.0 | 16.0 | 0.00 | 0.00 | 0.00 | 38 | 1013.2 |
| 20260503173655 | 62 | 0 | 5.0 | 16.0 | 0.00 | 0.00 | 0.00 | 38 | 1013.2 |
| 20260503173303 | 62 | 0 | 5.0 | 16.0 | 0.00 | 0.00 | 0.00 | 34 | 1013.2 |
| 20260503172852 | 62 | 0 | 4.0 | 16.0 | 0.00 | 0.00 | 0.00 | 37 | 1013.1 |
| 20260503171933 | 62 | 0 | 5.0 | 13.0 | 0.00 | 0.00 | 0.00 | 37 | 1013.2 |
| 20260503171535 | 62 | 0 | 5.0 | 13.0 | 0.00 | 0.00 | 0.00 | 36 | 1013.2 |
| 20260503171122 | 62 | 0 | 4.0 | 12.0 | 0.00 | 0.00 | 0.00 | 37 | 1013.3 |
| 20260503170716 | 62 | 0 | 4.0 | 12.0 | 0.00 | 0.00 | 0.00 | 36 | 1013.4 |
| 20260503170303 | 62 | 0 | 4.0 | 12.0 | 0.00 | 0.00 | 0.00 | 38 | 1013.5 |
| 20260503160205 | 59 | 207 | 4.0 | 13.0 | 0.00 | 0.00 | 0.00 | 37 | 1014.3 |
| 20260503150601 | 57 | 0 | 3.0 | 10.0 | 0.00 | 0.00 | 0.00 | 41 | 1014.7 |
| 20260503150156 | 56 | 0 | 3.0 | 10.0 | 0.00 | 0.00 | 0.00 | 36 | 1014.7 |
| 20260503131052 | 49 | 236 | 1.0 | 6.0 | 0.00 | 0.00 | 0.00 | 51 | 1015.6 |
| 20260503130645 | 49 | 192 | 1.0 | 6.0 | 0.00 | 0.00 | 0.00 | 52 | 1015.7 |
| 20260503130229 | 49 | 225 | 1.0 | 6.0 | 0.00 | 0.00 | 0.00 | 53 | 1015.5 |
| 20260503120200 | 42 | 203 | 0.0 | 4.0 | 0.00 | 0.00 | 0.00 | 70 | 1015.8 |
| 20260503110737 | 38 | 252 | 0.0 | 0.0 | 0.00 | 0.00 | 0.00 | 80 | 1015.4 |
| 20260503110323 | 37 | 250 | 0.0 | 0.0 | 0.00 | 0.00 | 0.00 | 81 | 1015.4 |
| 20260503090417 | 36 | 170 | 0.0 | 0.0 | 0.00 | 0.00 | 0.00 | 81 | 1015.4 |
| 20260503081523 | 36 | 165 | 0.0 | 0.0 | 0.00 | 0.00 | 0.00 | 82 | 1015.5 |
| 20260503081124 | 36 | 165 | 0.0 | 0.0 | 0.00 | 0.00 | 0.00 | 82 | 1015.5 |
| 20260503080718 | 36 | 166 | 0.0 | 0.0 | 0.00 | 0.00 | 0.00 | 82 | 1015.4 |
| 20260503080316 | 36 | 165 | 0.0 | 0.0 | 0.00 | 0.00 | 0.00 | 82 | 1015.5 |
| 20260503072522 | 35 | 152 | 0.0 | 0.0 | 0.00 | 0.00 | 0.00 | 83 | 1015.6 |
| 20260503072113 | 35 | 153 | 0.0 | 0.0 | 0.00 | 0.00 | 0.00 | 83 | 1015.6 |
| 20260503071719 | 35 | 150 | 0.0 | 0.0 | 0.00 | 0.00 | 0.00 | 83 | 1015.6 |
| 20260503071315 | 35 | 156 | 0.0 | 0.0 | 0.00 | 0.00 | 0.00 | 83 | 1015.6 |
| 20260503070354 | 35 | 156 | 0.0 | 0.0 | 0.00 | 0.00 | 0.00 | 83 | 1015.6 |
| 20260503055033 | 37 | 161 | 0.0 | 0.0 | 0.00 | 0.00 | 0.00 | 82 | 1016.0 |
| 20260503054634 | 37 | 157 | 0.0 | 0.0 | 0.00 | 0.00 | 0.00 | 82 | 1016.0 |
| 20260503054222 | 37 | 149 | 0.0 | 0.0 | 0.00 | 0.00 | 0.00 | 82 | 1016.0 |
| 20260503053816 | 37 | 157 | 0.0 | 0.0 | 0.00 | 0.00 | 0.00 | 82 | 1016.0 |
| 20260503053416 | 37 | 161 | 0.0 | 0.0 | 0.00 | 0.00 | 0.00 | 82 | 1016.0 |
| 20260503052441 | 37 | 161 | 0.0 | 0.0 | 0.00 | 0.00 | 0.00 | 82 | 1016.1 |
| 20260503052029 | 37 | 163 | 0.0 | 0.0 | 0.00 | 0.00 | 0.00 | 82 | 1016.1 |
| 20260503051624 | 37 | 163 | 0.0 | 0.0 | 0.00 | 0.00 | 0.00 | 82 | 1016.1 |
| 20260503051215 | 37 | 163 | 0.0 | 0.0 | 0.00 | 0.00 | 0.00 | 82 | 1016.1 |
| 20260503050805 | 37 | 164 | 0.0 | 0.0 | 0.00 | 0.00 | 0.00 | 81 | 1016.1 |
| 20260503045841 | 38 | 157 | 0.0 | 0.0 | 0.00 | 0.01 | 0.00 | 80 | 1016.2 |
| 20260503045432 | 38 | 153 | 0.0 | 0.0 | 0.00 | 0.01 | 0.00 | 80 | 1016.2 |
| 20260503045035 | 38 | 157 | 0.0 | 0.0 | 0.00 | 0.01 | 0.00 | 79 | 1016.3 |
| 20260503044626 | 38 | 157 | 0.0 | 0.0 | 0.00 | 0.01 | 0.00 | 79 | 1016.3 |
| 20260503044212 | 38 | 155 | 0.0 | 0.0 | 0.00 | 0.01 | 0.00 | 79 | 1016.3 |
| 20260503043811 | 38 | 157 | 0.0 | 0.0 | 0.00 | 0.01 | 0.00 | 79 | 1016.3 |
| 20260503043355 | 39 | 157 | 0.0 | 0.0 | 0.00 | 0.01 | 0.00 | 78 | 1016.2 |
| 20260503042947 | 39 | 161 | 0.0 | 0.0 | 0.00 | 0.01 | 0.00 | 77 | 1016.2 |
| 20260503042543 | 39 | 152 | 0.0 | 0.0 | 0.00 | 0.01 | 0.00 | 77 | 1016.2 |
| 20260503042127 | 39 | 154 | 0.0 | 0.0 | 0.00 | 0.01 | 0.00 | 77 | 1016.2 |
| 20260503041719 | 39 | 160 | 0.0 | 0.0 | 0.00 | 0.01 | 0.00 | 76 | 1016.3 |
| 20260503041305 | 39 | 159 | 0.0 | 0.0 | 0.00 | 0.01 | 0.00 | 76 | 1016.3 |
| 20260503040909 | 40 | 156 | 0.0 | 0.0 | 0.00 | 0.01 | 0.00 | 75 | 1016.3 |
| 20260503035955 | 40 | 176 | 0.0 | 0.0 | 0.00 | 0.01 | 0.01 | 74 | 1016.4 |
| 20260503035539 | 40 | 178 | 0.0 | 0.0 | 0.00 | 0.01 | 0.01 | 74 | 1016.4 |
| 20260503035142 | 40 | 178 | 0.0 | 0.0 | 0.00 | 0.01 | 0.01 | 74 | 1016.4 |
| 20260503034742 | 41 | 179 | 0.0 | 0.0 | 0.00 | 0.01 | 0.01 | 73 | 1016.4 |
| 20260503034330 | 41 | 180 | 0.0 | 0.0 | 0.00 | 0.01 | 0.01 | 73 | 1016.5 |
| 20260503033920 | 41 | 180 | 0.0 | 0.0 | 0.00 | 0.01 | 0.01 | 73 | 1016.5 |
| 20260503033525 | 41 | 180 | 0.0 | 0.0 | 0.00 | 0.01 | 0.01 | 73 | 1016.5 |
| 20260503033109 | 41 | 180 | 0.0 | 0.0 | 0.00 | 0.01 | 0.01 | 73 | 1016.6 |
| 20260503032703 | 41 | 180 | 0.0 | 0.0 | 0.00 | 0.01 | 0.01 | 73 | 1016.6 |
| 20260503032250 | 42 | 180 | 0.0 | 0.0 | 0.00 | 0.01 | 0.01 | 73 | 1016.7 |
| 20260503031854 | 42 | 180 | 0.0 | 0.0 | 0.00 | 0.01 | 0.01 | 72 | 1016.6 |
| 20260503030934 | 42 | 180 | 0.0 | 0.0 | 0.00 | 0.01 | 0.01 | 73 | 1016.6 |
| 20260503030528 | 42 | 180 | 0.0 | 0.0 | 0.00 | 0.01 | 0.01 | 72 | 1016.6 |
| 20260503030126 | 42 | 180 | 0.0 | 0.0 | 0.00 | 0.01 | 0.01 | 72 | 1016.7 |
| 20260503025224 | 42 | 180 | 0.0 | 0.0 | 0.00 | 0.01 | 0.01 | 73 | 1016.7 |
| 20260503024813 | 42 | 180 | 0.0 | 0.0 | 0.00 | 0.01 | 0.01 | 73 | 1016.7 |
| 20260503024409 | 42 | 180 | 0.0 | 0.0 | 0.00 | 0.01 | 0.01 | 72 | 1016.8 |
| 20260503023956 | 42 | 180 | 0.0 | 0.0 | 0.00 | 0.01 | 0.01 | 72 | 1016.9 |
| 20260503023044 | 42 | 180 | 0.0 | 0.0 | 0.00 | 0.01 | 0.01 | 71 | 1016.9 |
| 20260503022641 | 42 | 180 | 0.0 | 0.0 | 0.00 | 0.01 | 0.01 | 72 | 1016.9 |
| 20260503022231 | 42 | 180 | 0.0 | 0.0 | 0.00 | 0.01 | 0.01 | 72 | 1017.0 |
| 20260503021821 | 42 | 180 | 0.0 | 0.0 | 0.00 | 0.01 | 0.01 | 72 | 1017.0 |
| 20260503021427 | 43 | 182 | 0.0 | 0.0 | 0.00 | 0.01 | 0.01 | 72 | 1016.9 |
| 20260503020456 | 43 | 182 | 0.0 | 0.0 | 0.00 | 0.01 | 0.01 | 70 | 1017.0 |
| 20260503020053 | 43 | 180 | 0.0 | 0.0 | 0.00 | 0.01 | 0.01 | 69 | 1016.9 |
| 20260503015643 | 43 | 180 | 0.0 | 0.0 | 0.00 | 0.01 | 0.01 | 69 | 1016.9 |
| 20260503015249 | 43 | 182 | 0.0 | 0.0 | 0.00 | 0.01 | 0.01 | 68 | 1016.9 |
| 20260503014838 | 43 | 181 | 0.0 | 1.0 | 0.00 | 0.01 | 0.01 | 68 | 1016.9 |
| 20260503014421 | 43 | 182 | 0.0 | 1.0 | 0.00 | 0.01 | 0.01 | 68 | 1016.9 |
| 20260503013450 | 44 | 182 | 0.0 | 0.0 | 0.00 | 0.01 | 0.01 | 68 | 1016.9 |
| 20260503013043 | 44 | 182 | 0.0 | 0.0 | 0.00 | 0.01 | 0.01 | 67 | 1016.9 |
| 20260503012643 | 44 | 182 | 0.0 | 0.0 | 0.00 | 0.01 | 0.01 | 66 | 1016.9 |
| 20260503012230 | 44 | 182 | 0.0 | 0.0 | 0.00 | 0.01 | 0.01 | 66 | 1016.9 |
| 20260503011820 | 44 | 182 | 0.0 | 1.0 | 0.00 | 0.01 | 0.01 | 66 | 1016.9 |
| 20260503010916 | 44 | 182 | 0.0 | 0.0 | 0.00 | 0.01 | 0.01 | 67 | 1016.9 |
| 20260503010500 | 44 | 182 | 0.0 | 0.0 | 0.00 | 0.01 | 0.01 | 66 | 1016.9 |
| 20260503010050 | 44 | 182 | 0.0 | 0.0 | 0.00 | 0.01 | 0.01 | 65 | 1016.9 |
| 20260503005140 | 44 | 182 | 0.0 | 0.0 | 0.00 | 0.01 | 0.01 | 66 | 1016.9 |
| 20260503004727 | 44 | 182 | 0.0 | 0.0 | 0.00 | 0.01 | 0.01 | 64 | 1016.9 |
| 20260503003755 | 44 | 182 | 0.0 | 0.0 | 0.00 | 0.01 | 0.01 | 63 | 1016.7 |
| 20260503003346 | 44 | 182 | 0.0 | 0.0 | 0.00 | 0.01 | 0.01 | 61 | 1016.8 |
| 20260503002935 | 45 | 183 | 0.0 | 3.0 | 0.00 | 0.01 | 0.01 | 61 | 1016.7 |
| 20260503002533 | 45 | 226 | 0.0 | 1.0 | 0.00 | 0.01 | 0.01 | 62 | 1016.7 |
| 20260503002121 | 45 | 200 | 0.0 | 1.0 | 0.00 | 0.01 | 0.01 | 62 | 1016.7 |
| 20260503001719 | 45 | 215 | 0.0 | 1.0 | 0.00 | 0.01 | 0.01 | 62 | 1016.7 |
| 20260503001314 | 45 | 218 | 1.0 | 0.0 | 0.00 | 0.01 | 0.01 | 61 | 1016.7 |
| 20260503000914 | 45 | 219 | 1.0 | 3.0 | 0.00 | 0.01 | 0.01 | 60 | 1016.7 |
| 20260503000502 | 45 | 190 | 0.0 | 3.0 | 0.00 | 0.01 | 0.01 | 60 | 1016.7 |
| 20260503000054 | 45 | 227 | 0.0 | 3.0 | 0.00 | 0.01 | 0.01 | 61 | 1016.7 |
| 20260502235645 | 45 | 211 | 0.0 | 3.0 | 0.00 | 0.01 | 0.01 | 61 | 1016.7 |
| 20260502235243 | 45 | 259 | 0.0 | 2.0 | 0.00 | 0.01 | 0.01 | 61 | 1016.6 |
| 20260502234846 | 45 | 244 | 0.0 | 1.0 | 0.00 | 0.01 | 0.01 | 62 | 1016.6 |
| 20260502233921 | 45 | 234 | 1.0 | 4.0 | 0.00 | 0.01 | 0.01 | 60 | 1016.7 |